Retour au catalogue

CZ-4B DEB

ActifPO
NORAD 38184·DEBRIS·🇨🇳 China

Lancé Oct 6, 2010 depuis Taiyuan Satellite Launch Center

Loading…

Prochains Passages (prochaines 24 heures)

TLE

FraisSource: Space-Track

Époque: Sep 14, 2026, 10:52 UTC

1 38184U 10051E   26257.45308403  .00063007  00000-0  12737-2 0  9998
2 38184  97.7692  79.9367 0033166 350.7303   9.3328 15.45652317849721

Suivez CZ-4B DEB en temps réel avec AllMySat

Download on the App Store